* Astronomy

Members Login
Username 
 
Password 
    Remember Me  
Post Info TOPIC: Asteroid 2009 HX67


L

Posts: 131433
Date:
Asteroid 2009 HX67
Permalink  
 


Orbital elements:
2009 HX67 Earth MOID = 0.3409 AU
Epoch 2009 June 18.0 TT = JDT 2455000.5 MPC
M 345.63922 (2000.0) P Q
n 0.38507107 Peri. 82.74447 +0.24389587 +0.84673328
a 1.8711508 Node 215.98698 -0.82284918 +0.43870506
e 0.4543617 Incl. 53.57733 +0.51325825 +0.30096615
P 2.56 H 20.8 G 0.15 U 9

MPEC 2009 - H74


__________________
Page 1 of 1  sorted by
 
Quick Reply

Please log in to post quick replies.



Create your own FREE Forum
Report Abuse
Powered by ActiveBoard